User: anonymous   Login
Location: �chenoz-la-M�line
(47.6009°N, 6.1354°E)
Time: 18:32:42
(UTC+00:00)
Language:

NOAA 12 - Orbit

View from above orbital plane
View from above orbital plane
View from above satellite
View from above satellite

Ground track
Ground track

The orbit data is extracted from the following two-line orbital elements,

1 21263U 91032A   21104.55397871 -.00000025  00000-0  73323-5 0  9993
2 21263  98.5066 111.7089 0014220 150.3263 209.8727 14.25937234555602
Epoch (UTC): 14 April 2021 13:17:43
Eccentricity: 0.0014220
inclination: 98.5066°
perigee height: 795 km
apogee height: 815 km
right ascension of ascending node: 111.7089°
argument of perigee: 150.3263°
revolutions per day: 14.25937234
mean anomaly at epoch: 209.8727°
orbit number at epoch: 55560

The dashed part of the orbit path shows where the satellite is in the earth's shadow,  

DLR